This is the latest recevied weather packets stored in our database for station/object WA7CUG. If no packets are shown the sender has not sent any weather packets the latest 10 day(s).
| Time | Temp. | Humidity | Pressure | Rain* | Wind** | Luminosity | Snow |
|---|---|---|---|---|---|---|---|
| 1778116042 | 25.56° C | 29% | 1010.2 hPa | 0 mm | - | 52 W/m² | - |
| 1778115738 | 25.56° C | 28% | 1010.3 hPa | 0 mm | - | 56 W/m² | - |
| 1778115436 | 25.56° C | 29% | 1010.2 hPa | 0 mm | - | 61 W/m² | - |
| 1778115132 | 26.11° C | 29% | 1009.9 hPa | 0 mm | - | 63 W/m² | - |
| 1778114829 | 26.11° C | 29% | 1010.1 hPa | 0 mm | - | 65 W/m² | - |
| 1778114527 | 26.11° C | 29% | 1010.2 hPa | 0 mm | - | 68 W/m² | - |
| 1778114223 | 26.11° C | 30% | 1010 hPa | 0 mm | - | 73 W/m² | - |
| 1778113918 | 26.11° C | 29% | 1009.9 hPa | 0 mm | - | 81 W/m² | - |
| 1778113614 | 26.11° C | 29% | 1009.8 hPa | 0 mm | - | 87 W/m² | - |
| 1778113310 | 26.11° C | 30% | 1009.8 hPa | 0 mm | - | 91 W/m² | - |
| 1778113007 | 26.11° C | 29% | 1009.8 hPa | 0 mm | - | 88 W/m² | - |
| 1778112705 | 26.67° C | 30% | 1009.8 hPa | 0 mm | - | 92 W/m² | - |
| 1778112401 | 26.67° C | 29% | 1009.9 hPa | 0 mm | - | 93 W/m² | - |
| 1778112096 | 26.67° C | 30% | 1009.7 hPa | 0 mm | - | 83 W/m² | - |
| 1778111794 | 26.67° C | 30% | 1009.7 hPa | 0 mm | - | 89 W/m² | - |
| 1778111494 | 26.67° C | 30% | 1009.5 hPa | 0 mm | - | 106 W/m² | - |
| 1778111192 | 26.67° C | 30% | 1009.5 hPa | 0 mm | - | 109 W/m² | - |
| 1778110889 | 26.67° C | 30% | 1009.5 hPa | 0 mm | - | 103 W/m² | - |
| 1778110585 | 27.22° C | 30% | 1009.6 hPa | 0 mm | - | 113 W/m² | - |
| 1778110283 | 27.22° C | 30% | 1009.7 hPa | 0 mm | - | 112 W/m² | - |
| 1778109979 | 27.22° C | 31% | 1009.7 hPa | 0 mm | - | 132 W/m² | - |
| 1778109674 | 27.22° C | 30% | 1009.5 hPa | 0 mm | - | 139 W/m² | - |
| 1778109371 | 27.78° C | 30% | 1009.5 hPa | 0 mm | - | 151 W/m² | - |
| 1778109070 | 27.78° C | 30% | 1009.5 hPa | 0 mm | - | 166 W/m² | - |
| 1778108766 | 27.78° C | 29% | 1009.7 hPa | 0 mm | - | 175 W/m² | - |
* Rain latest hour (hover to see other rain measurements)
** Current wind speed in m/s (hover to see current wind gust speed)